Location: Campolattaro
(41.2833°N, 14.7333°E)
Time: 06:18:19
(UTC+00:00)

Cosmos 2082 Rocket - Pass Details

Date: 19 May 2025
Orbit: 832 x 853 km, 71.0° (Epoch: 14 June)

Event Time Altitude Azimuth Distance (km) Brightness Sun altitude
Exits shadow 20:00:16 19° 102° (ESE) 1,871 3.5 -16.3°
Maximum altitude 20:00:24 19° 100° (E) 1,870 3.5 -16.3°
Drops below altitude 10° 20:04:15 10° 56° (NE) 2,447 4.5 -16.8°
Sets 20:07:20 0° 40° (NE) 3,389 5.5 -17.2°
